Showing default

COSMOS 198, 3081

Orbit data source: Space-Track

COSMOS 198, 3081 is a payload satellite owned by TSKBM (CIS) in LEO that was launched on Wed, 27 Dec 1967 UTC via a TSIKLON-2A launch vehicle from the Tyuratam Missile And Space Complex (TTMTR). Payload-class satellites include a variety of spacecraft equipped with specific instruments for various scientific and technological missions. These include communications satellites like Starlink; space stations such as the ISS; scientific satellites like the Hubble; Earth observation satellites from companies like Planet Labs, Umbra, and HawkEye 360; GPS; miniature CubeSats for education and research; and military/defense satellites.

Loading next visibility...
Identifier
3081, 1967-127A
Orbit
LEO
Country
Flag of CISCIS
Related business
Manufacturer
TSKBM/KB1
Mission
Spacecraft
Bus & Motor
US-A ROCH, Unknown motor
Mass
3,800 kg wet, 1,140 kg dry
Launch date (UTC)
1967-12-27 (58 years ago)
Launch vehicle
TSIKLON-2A
Launch site
Tyuratam Missile And Space Complex (TTMTR)
Object type
Payload
Rocket body
Debris
Shape & HBR
Unknown
Radar Cross Section
Large (>1 m²)

Expand to show TLE details & history
Last TLE update: 23 hours ago

TLE from 23 hours ago
0 COSMOS 198
1 03081U 67127A   26037.02950377 -.00000040  00000-0  37889-4 0  9990
2 03081  65.1414 264.8879 0017656 155.3670 204.8243 13.93384421955304
Epoch: 2026-02-06T00:42Z
TLE epoch observation values (Epoch: 2026-02-06T00:42:29.125Z)
Latitude
-0.00006°
Longitude
118.09327°
Altitude
930.438 km
Speed
7.381 km/s
True Right ascension
17h 39m 33s
True Declination
0° 00' 00"
Sunlit
Object was in daylight at epoch
Visualization orbit readout
Latitude
Unknown
Longitude
Unknown
Altitude
Unknown
Speed
Unknown
Apparent Right ascension
Unknown
Apparent Declination
Unknown
Sunlit
N/A
Visualization observer readout
Local Sidereal Time
01:23:46
Azimuth
Unknown
Elevation
Unknown
Doppler factor
Unknown
Orbital elements
Apogee altitude
928.258 km
Perigee altitude
902.503 km
Semi-major axis
7,293.518 km
Eccentricity
0.00177
Inclination
65.1414°
RAAN
264.8879°
Arg. of periapsis
155.367°
True anomaly
204.73953°
Mean anomaly
204.8243°
Eccentric anomaly
204.7819°
Mean motion
3.48448 °/min
Orbital period
103.32 mins
BSTAR
0.000037889
Loading maneuver chart data...
Computing Atmospheric mass density...
Loading historical data...
Loading historical data...
Loading historical data...
Loading historical data...
Loading historical data...
Loading historical data...
Loading historical data...
Other satellites on launch #127 in the year 1967 (1967-12-27 UTC)

Documentation

Showing up to 5 results
|